星链-1088 (STARLINK-1088 )

导读 | 星芒AI

STARLINK-1088 是 SpaceX Starlink 项目中的一颗低轨通信卫星,属于第十一组 Starlink 卫星群。该卫星于 2021 年 11 月 19 日由猎鹰九号火箭从肯尼迪航天中心发射升空,旨在为全球提供高速互联网服务。它运行在约 550 公里的轨道高度,采用先进的相控阵天线和激光通信技术,以提升网络连接的稳定性和速度。作为 Starlink 系统的一部分,STARLINK-1088 有助于扩大覆盖范围,特别是在偏远和网络基础设施薄弱的地区。

基本信息
目录编号:
44966
目录名称:
STARLINK-1088
国际标识:
2020-001BE
轨道中心:
EARTH
卫星名称:
星链-1088
卫星全名:
星链-1088 (STARLINK-1088 )
卫星状态:
已陨落 最后检测时间 2025-04-21
发射日期:
2020-01-07 UTC
国别 :
美国 (US)
星等 :
--
轨道信息
数据来源 国际轨道数据
星历时间: 2025-04-21T20:29:07+0800
轨道信息已过期190天
半长轴: 6529.182km
偏心率: 0.0004875
轨道倾角: 53.041°
近地点辐角 312.325°
升交点赤经 160.436°
平近点角 197.644°
近地点: 147.864km
远地点: 154.23km
周期: 87.508分钟
每日圈数: 16.455634
详细信息
固有亮度:
5
最大亮度:
2.5
卫星平台:
Starlink V1.0
覆盖范围:
全球
运营商:
太空探索技术公司
运营商所在国:
美国
制造商(研发单位):
太空探索技术公司
制造商所在国:
美国
使用方式:
暂无
卫星简介
星链(Starlink)计划是由太空探索技术公司(SpaceX)提出的一个巨型低轨卫星互联网星座项目,计划在2019年至2024年间在太空搭建由约1.2万颗卫星组成的“星链”网络,其中1584颗将部署在地球上空550千米处的近地轨道,并从2020年开始工作。该卫星仍在工作。